Location: Munkebjergskolens Observatorium
(55.3864°N, 10.3987°E)
Time: 14:38:49
(UTC+01:00)

N. Korean satellite - Visible Passes

Search period start: 30 November 2022 00:00
Search period end: 10 December 2022 00:00
Orbit: 421 x 454 km, 97.3° (Epoch: 29 November)

Date Brightness Start Highest point End Pass type
(mag) Time Alt. Az. Time Alt. Az. Time Alt. Az.
30 Nov 7.5 05:30:03 10° NNE 05:33:23 46° E 05:36:41 10° S visible
30 Nov 7.8 07:03:05 10° NNW 07:05:40 20° WNW 07:08:14 10° WSW visible
30 Nov 9.6 17:39:52 10° SW 17:42:15 18° W 17:44:40 10° NW visible
01 Dec 9.2 04:51:53 10° NE 04:54:24 19° E 04:56:54 10° SE visible
01 Dec 6.7 06:23:50 10° N 06:27:09 45° WNW 06:30:25 10° SW visible
01 Dec 7.8 17:00:00 10° S 17:03:14 43° W 17:06:32 10° NNW visible
02 Dec 6.7 05:44:58 10° NNE 05:48:24 68° ESE 05:51:48 10° S visible
02 Dec 8.1 07:18:27 10° NNW 07:20:30 15° WNW 07:22:33 10° W visible
02 Dec 9.8 17:55:42 10° WSW 17:57:21 13° W 17:59:01 10° WNW visible
03 Dec 8.7 05:06:30 10° NE 05:09:26 26° E 05:12:20 10° SSE visible
03 Dec 7.1 06:38:53 10° N 06:41:59 32° WNW 06:45:03 10° SW visible
03 Dec 8.6 17:15:09 10° SSW 17:18:11 30° W 17:21:16 10° NNW visible
04 Dec 9.9 04:29:11 10° ENE 04:30:13 11° E 04:31:14 10° ESE visible
04 Dec 6.3 05:59:48 10° NNE 06:03:15 83° WNW 06:06:39 10° SSW visible
04 Dec 8.4 07:33:57 10° NW 07:35:10 12° NW 07:36:23 10° WNW visible
04 Dec 6.6 16:35:48 10° SSE 16:39:12 81° WSW 16:42:38 10° NNW visible
05 Dec 8.0 05:21:05 10° NNE 05:24:16 36° E 05:27:26 10° SSE visible
05 Dec 7.5 06:53:51 10° N 06:56:39 24° WNW 06:59:26 10° WSW visible
05 Dec 9.2 17:30:18 10° SW 17:33:01 22° W 17:35:45 10° NW visible
06 Dec 9.5 04:42:59 10° NE 04:45:04 15° E 04:47:08 10° SE visible
06 Dec 6.4 06:14:33 10° N 06:17:55 57° WNW 06:21:15 10° SSW visible
06 Dec 7.2 16:50:31 10° S 16:53:52 55° W 16:57:16 10° NNW visible
07 Dec 7.2 05:35:35 10° NNE 05:38:56 52° E 05:42:15 10° S visible
07 Dec 7.9 07:08:45 10° NNW 07:11:09 18° WNW 07:13:31 10° WSW visible
07 Dec 9.6 17:45:31 10° SW 17:47:43 16° W 17:49:56 10° NW visible
08 Dec 9.0 04:57:05 10° NE 04:59:44 21° E 05:02:21 10° SE visible
08 Dec 6.8 06:29:11 10° N 06:32:24 40° WNW 06:35:35 10° SW visible
08 Dec 8.1 17:05:13 10° SSW 17:08:26 38° W 17:11:40 10° NNW visible
09 Dec 6.5 05:50:01 10° NNE 05:53:26 76° ESE 05:56:48 10° S visible
09 Dec 8.2 07:23:40 10° NNW 07:25:27 14° WNW 07:27:15 10° W visible
09 Dec 9.9 18:00:59 10° WSW 18:02:18 12° W 18:03:37 10° WNW visible
